When you browse on this site, cookies collect data to enhance your experience and personalize the content and advertising you see.
Visit our Privacy Policy to learn more. By continuing to use the site, you agree to this use of cookies and data.
  • In Hungary
  • List of Countries
  • For 7 days
  • Water Temperature
  • Satellite Maps
  • Weather Map
  • News
  • Weather Widgets
  • user-avatar
    Login

    Hourly Weather Balatonszаrszо

    Today, 20 February, Wednesday

    Time Temperature Precipitation Wind Pressure Humidity
    00:00 +8°C° 0 mm 1 mps 755 mmHg 65%
    01:00 +8°C° 0 mm 1 mps 755 mmHg 64%
    02:00 +8°C° 0 mm 1 mps 755 mmHg 65%
    03:00 +6°C° 0 mm 2 mps 755 mmHg 66%
    04:00 +6°C° 0 mm 2 mps 755 mmHg 67%
    05:00 +6°C° 0 mm 2 mps 756 mmHg 70%
    06:00 +5°C° 0 mm 3 mps 756 mmHg 73%
    07:00 +7°C° 0 mm 3 mps 756 mmHg 75%
    08:00 +7°C° 0 mm 3 mps 757 mmHg 70%
    09:00 +8°C° 0 mm 3 mps 757 mmHg 65%
    10:00 +8°C° 0 mm 4 mps 757 mmHg 60%
    11:00 +10°C° 0 mm 4 mps 757 mmHg 54%
    12:00 +11°C° 0 mm 4 mps 757 mmHg 48%
    13:00 +12°C° 0 mm 4 mps 757 mmHg 43%
    14:00 +12°C° 0 mm 4 mps 757 mmHg 44%
    15:00 +12°C° 0 mm 4 mps 757 mmHg 45%
    16:00 +12°C° 0 mm 3 mps 757 mmHg 46%
    17:00 +10°C° 0 mm 3 mps 757 mmHg 51%
    18:00 +9°C° 0 mm 2 mps 758 mmHg 56%
    19:00 +9°C° 0 mm 1 mps 758 mmHg 60%
    20:00 +9°C° 0 mm 1 mps 758 mmHg 61%
    21:00 +8°C° 0 mm 1 mps 759 mmHg 63%
    22:00 +8°C° 0 mm 1 mps 759 mmHg 64%
    23:00 +7°C° 0 mm 1 mps 760 mmHg 66%

    Tomorrow, 21 February, Thursday

    Time Temperature Precipitation Wind Pressure Humidity
    00:00 +7°C° 0 mm 1 mps 760 mmHg 67%
    01:00 +7°C° 0 mm 1 mps 760 mmHg 69%
    02:00 +6°C° 0 mm 1 mps 760 mmHg 71%
    03:00 +6°C° 0 mm 1 mps 760 mmHg 73%
    04:00 +6°C° 0 mm 1 mps 760 mmHg 76%
    05:00 +5°C° 0 mm 1 mps 760 mmHg 78%
    06:00 +5°C° 0 mm 1 mps 760 mmHg 80%
    07:00 +5°C° 0 mm 1 mps 761 mmHg 82%
    08:00 +6°C° 0 mm 2 mps 761 mmHg 75%
    09:00 +7°C° 0 mm 2 mps 761 mmHg 68%
    10:00 +9°C° 0 mm 2 mps 761 mmHg 61%
    11:00 +10°C° 0 mm 3 mps 761 mmHg 58%
    12:00 +11°C° 0 mm 3 mps 761 mmHg 55%
    13:00 +12°C° 0 mm 3 mps 760 mmHg 53%
    14:00 +12°C° 0 mm 3 mps 760 mmHg 53%
    15:00 +12°C° 0 mm 3 mps 759 mmHg 53%
    16:00 +12°C° 0 mm 3 mps 759 mmHg 53%
    17:00 +11°C° 0 mm 3 mps 759 mmHg 58%
    18:00 +10°C° 0 mm 2 mps 759 mmHg 63%
    19:00 +9°C° 0 mm 2 mps 759 mmHg 68%
    20:00 +9°C° 0 mm 2 mps 759 mmHg 69%
    21:00 +9°C° 0 mm 2 mps 759 mmHg 70%
    22:00 +9°C° 0 mm 2 mps 759 mmHg 71%
    23:00 +9°C° 0.1 mm 2 mps 759 mmHg 72%

    Day after tomorrow, 22 February, Friday

    Time Temperature Precipitation Wind Pressure Humidity
    00:00 +9°C° 0.1 mm 3 mps 759 mmHg 73%
    01:00 +9°C° 0.1 mm 3 mps 758 mmHg 75%
    02:00 +8°C° 0.1 mm 3 mps 758 mmHg 76%
    03:00 +8°C° 0.1 mm 3 mps 758 mmHg 77%
    04:00 +8°C° 0.1 mm 3 mps 757 mmHg 79%
    05:00 +7°C° 0.3 mm 4 mps 757 mmHg 80%
    06:00 +7°C° 0.3 mm 4 mps 757 mmHg 81%
    07:00 +7°C° 0.3 mm 4 mps 757 mmHg 82%
    08:00 +7°C° 0.7 mm 5 mps 756 mmHg 81%
    09:00 +8°C° 0.7 mm 7 mps 756 mmHg 80%
    10:00 +7°C° 0.7 mm 8 mps 756 mmHg 79%
    11:00 +9°C° 0 mm 8 mps 756 mmHg 73%
    12:00 +10°C° 0 mm 9 mps 756 mmHg 67%
    13:00 +11°C° 0 mm 10 mps 756 mmHg 62%
    14:00 +9°C° 0 mm 10 mps 757 mmHg 60%
    15:00 +8°C° 0 mm 10 mps 757 mmHg 58%
    16:00 +8°C° 0 mm 10 mps 758 mmHg 56%
    17:00 +6°C° 0 mm 10 mps 759 mmHg 57%
    18:00 +3°C° 0 mm 10 mps 760 mmHg 57%
    19:00 +1°C° 0 mm 9 mps 761 mmHg 58%
    20:00 0°C° 0 mm 9 mps 762 mmHg 58%
    21:00 0°C° 0 mm 8 mps 764 mmHg 57%
    22:00 -1°C° 0 mm 7 mps 765 mmHg 57%
    23:00 -2°C° 0 mm 7 mps 765 mmHg 57%

    23 February, Saturday

    Time Temperature Precipitation Wind Pressure Humidity
    00:00 -2°C° 0 mm 6 mps 766 mmHg 57%
    01:00 -2°C° 0 mm 5 mps 766 mmHg 57%
    02:00 -2°C° 0 mm 5 mps 766 mmHg 56%
    03:00 -2°C° 0 mm 4 mps 767 mmHg 55%
    04:00 -3°C° 0 mm 4 mps 767 mmHg 55%
    05:00 -2°C° 0 mm 3 mps 767 mmHg 53%
    06:00 -2°C° 0 mm 3 mps 768 mmHg 52%
    07:00 -2°C° 0 mm 3 mps 768 mmHg 51%
    08:00 -2°C° 0 mm 3 mps 768 mmHg 47%
    09:00 -1°C° 0 mm 3 mps 769 mmHg 44%
    10:00 -1°C° 0 mm 4 mps 769 mmHg 41%
    11:00 -1°C° 0 mm 4 mps 769 mmHg 38%
    12:00 0°C° 0 mm 4 mps 769 mmHg 35%
    13:00 +1°C° 0 mm 4 mps 768 mmHg 31%
    14:00 +1°C° 0 mm 4 mps 768 mmHg 31%
    15:00 +1°C° 0 mm 4 mps 768 mmHg 30%
    16:00 +1°C° 0 mm 4 mps 768 mmHg 30%
    17:00 +1°C° 0 mm 3 mps 768 mmHg 33%
    18:00 0°C° 0 mm 3 mps 768 mmHg 37%
    19:00 -1°C° 0 mm 2 mps 768 mmHg 41%
    20:00 -1°C° 0 mm 2 mps 768 mmHg 41%
    21:00 0°C° 0 mm 1 mps 769 mmHg 42%
    22:00 0°C° 0 mm 1 mps 769 mmHg 43%
    23:00 0°C° 0 mm 1 mps 769 mmHg 43%

    24 February, Sunday

    Time Temperature Precipitation Wind Pressure Humidity
    00:00 0°C° 0 mm 1 mps 769 mmHg 43%
    01:00 -1°C° 0 mm 1 mps 769 mmHg 43%
    02:00 -1°C° 0 mm 1 mps 769 mmHg 43%
    03:00 -1°C° 0 mm 1 mps 768 mmHg 43%
    04:00 -2°C° 0 mm 0 mps 768 mmHg 44%
    05:00 -1°C° 0 mm 1 mps 768 mmHg 44%
    06:00 -1°C° 0 mm 1 mps 768 mmHg 44%
    07:00 -1°C° 0 mm 1 mps 768 mmHg 45%
    08:00 0°C° 0 mm 1 mps 768 mmHg 40%
    09:00 -1°C° 0 mm 2 mps 768 mmHg 36%
    10:00 +2°C° 0 mm 2 mps 769 mmHg 31%
    11:00 +3°C° 0 mm 2 mps 768 mmHg 29%
    12:00 +4°C° 0 mm 2 mps 768 mmHg 26%
    13:00 +5°C° 0 mm 2 mps 767 mmHg 24%
    14:00 +5°C° 0 mm 2 mps 767 mmHg 25%
    15:00 +5°C° 0 mm 2 mps 767 mmHg 26%
    16:00 +5°C° 0 mm 2 mps 767 mmHg 27%
    17:00 +3°C° 0 mm 2 mps 767 mmHg 31%
    18:00 +2°C° 0 mm 2 mps 767 mmHg 34%
    19:00 +2°C° 0 mm 1 mps 767 mmHg 38%
    20:00 +1°C° 0 mm 1 mps 767 mmHg 38%
    21:00 +1°C° 0 mm 1 mps 767 mmHg 38%
    22:00 +1°C° 0 mm 1 mps 767 mmHg 38%
    23:00 +1°C° 0 mm 1 mps 767 mmHg 37%

    25 February, Monday

    Time Temperature Precipitation Wind Pressure Humidity
    00:00 +1°C° 0 mm 1 mps 767 mmHg 37%
    01:00 +1°C° 0 mm 1 mps 767 mmHg 36%
    02:00 +1°C° 0 mm 1 mps 767 mmHg 37%
    03:00 +1°C° 0 mm 1 mps 767 mmHg 37%
    04:00 0°C° 0 mm 0 mps 767 mmHg 38%
    05:00 +1°C° 0 mm 1 mps 766 mmHg 40%
    06:00 +1°C° 0 mm 1 mps 766 mmHg 42%
    07:00 +1°C° 0 mm 1 mps 766 mmHg 44%
    08:00 +2°C° 0 mm 1 mps 766 mmHg 43%
    09:00 +4°C° 0 mm 1 mps 766 mmHg 42%
    10:00 +4°C° 0 mm 2 mps 766 mmHg 41%
    11:00 +6°C° 0 mm 2 mps 766 mmHg 42%
    12:00 +7°C° 0 mm 3 mps 765 mmHg 42%
    13:00 +8°C° 0 mm 3 mps 765 mmHg 43%
    14:00 +8°C° 0 mm 3 mps 764 mmHg 46%
    15:00 +7°C° 0 mm 4 mps 764 mmHg 49%
    16:00 +7°C° 0 mm 4 mps 763 mmHg 51%
    17:00 +6°C° 0 mm 4 mps 763 mmHg 58%
    18:00 +5°C° 0 mm 3 mps 763 mmHg 64%
    19:00 +4°C° 0 mm 3 mps 763 mmHg 70%
    20:00 +4°C° 0 mm 3 mps 764 mmHg 73%
    21:00 +3°C° 0 mm 4 mps 764 mmHg 75%
    22:00 +3°C° 0 mm 4 mps 764 mmHg 78%
    23:00 +3°C° 0 mm 4 mps 764 mmHg 81%
    Show more